Weather in Gorodok

Belarus     55°27′44″N   29°58′58″E
temp.,
°C
wind,
m/s
gust,
m/s
humid.,
%
clouds,
%
prec.,
mm/h
press.,
hPa
HPBL,
m
25 october, mon
mon2500:00−1wnw22885 0.0 103029
03:00−1wsw228489 0.0 103042
06:00−1sw36929 0.0 1030130
09:000sw399369 0.0 1030267
12:00+5sw59715 0.0 1029587
15:00+7sw59635 0.0 1027876
18:00+4ssw4117535 0.0 1027354
21:00+3sw51479100 0.0 1026431
26 october, tue
tue2600:00+2sw5147997 0.0 1025443
03:00+2ssw51480100 0.0 1024395
06:00+2ssw51377100 0.0 1022368
09:00+2ssw51374100 0.0 1021381
12:00+6ssw51261100 0.0 1020490
15:00+7ssw51258100 0.0 1018630
18:00+5ssw51366100 0.0 1018457
21:00+4sw51372100 0.0 1018422
27 october, wed
wed2700:00+3sw41278100 0.0 1017355
03:00+4sw41084100 0.0 1015335
06:00+4sw41186100 0.1 1014401
09:00+5wsw41196100 0.9 1015475
12:00+7w5119180 0.0 1015724
15:00+8w61171100 0.1 10161256
18:00+6wsw41181100 0.0 1017518
21:00+7wsw51187100 0.0 1016525
28 october, thu
thu2800:00+6ssw51293100 0.4 1015479
03:00+8sw51497100 1.6 1013753
06:00+10w51395100 0.4 1012781
09:00+10w51297100 0.8 1013727
12:00+11w51191100 0.2 1015771
15:00+12wnw6107896 0.3 10161138
18:00+9wnw389095 0.1 1019213
21:00+8nnw268638 0.1 1021170
29 october, fri
fri2900:00+5nnw22957 0.0 102324
03:00+7nw0089100 0.0 102415
06:00+6ssw2291100 0.0 102531
09:00+7s2589100 0.0 1026162
12:00+9ssw3690100 0.0 1026265
15:00+12sw3684100 0.0 1026678
18:00+11ssw359186 0.0 1027128
21:00+11ssw378985 0.0 1027189